FW8536 Weather Reports


Display with metric or nautical units.
time (UTC)temp
F
wind
direction
speed
MPH
gust
MPH
rain 1hr
in
rain 24hr
in
rain mn
in
humidity
%
barometer
mb
20260901170012 75 360 6.0 10.0 0.00 0.00 0.00 43 1001.0
20260901165512 74 94 4.0 9.0 0.00 0.00 0.00 43 1000.9
20260901165012 74 80 6.0 10.0 0.00 0.00 0.00 44 1000.9
20260901164512 73 84 5.0 8.0 0.00 0.00 0.00 45 1000.8
20260901164011 73 360 6.0 11.0 0.00 0.00 0.00 46 1000.8
20260901163031 72 85 5.0 11.0 0.00 0.00 0.00 46 1000.8
20260901162515 72 360 6.0 9.0 0.00 0.00 0.00 46 1000.7
20260901162015 72 360 6.0 10.0 0.00 0.00 0.00 45 1000.7
20260901161519 71 95 5.0 10.0 0.00 0.00 0.00 46 1000.9
20260901161014 71 360 7.0 11.0 0.00 0.00 0.00 47 1000.9
20260901160513 71 87 7.0 11.0 0.00 0.00 0.00 47 1001.0
20260901160013 70 360 7.0 10.0 0.00 0.00 0.00 48 1000.8
20260901155513 70 360 7.0 10.0 0.00 0.00 0.00 48 1000.9
20260901155013 70 360 6.0 10.0 0.00 0.00 0.00 48 1000.9
20260901154530 70 78 6.0 10.0 0.00 0.00 0.00 48 1001.0
20260901154013 69 83 5.0 8.0 0.00 0.00 0.00 49 1000.9
20260901153020 68 360 3.0 6.0 0.00 0.00 0.00 51 1001.1
20260901152510 68 360 3.0 6.0 0.00 0.00 0.00 50 1000.9
20260901152010 67 88 2.0 6.0 0.00 0.00 0.00 52 1001.0
20260901151514 67 360 2.0 6.0 0.00 0.00 0.00 53 1000.9
20260901151010 66 173 1.0 3.0 0.00 0.00 0.00 54 1001.2
20260901150510 65 173 1.0 5.0 0.00 0.00 0.00 54 1001.2
20260901150010 65 174 3.0 6.0 0.00 0.00 0.00 54 1001.3
20260901145510 64 175 4.0 6.0 0.00 0.00 0.00 53 1001.2
20260901145009 64 176 3.0 6.0 0.00 0.00 0.00 55 1001.4
20260901144517 63 177 3.0 6.0 0.00 0.00 0.00 55 1001.4
20260901144014 63 178 0.0 5.0 0.00 0.00 0.00 57 1001.3
20260901143011 62 181 0.0 0.0 0.00 0.00 0.00 58 1001.3
20260901142513 61 181 0.0 0.0 0.00 0.00 0.00 60 1001.3
20260901142010 60 181 0.0 0.0 0.00 0.00 0.00 63 1001.3
20260901141515 59 181 0.0 0.0 0.00 0.00 0.00 65 1001.2
20260901141009 57 181 0.0 1.0 0.00 0.00 0.00 67 1001.3
20260901140510 56 181 0.0 1.0 0.00 0.00 0.00 69 1001.3
20260901140010 56 181 0.0 1.0 0.00 0.00 0.00 69 1001.2
20260901135515 56 181 0.0 1.0 0.00 0.00 0.00 69 1001.3
20260901135010 56 188 0.0 2.0 0.00 0.00 0.00 68 1001.3
20260901134510 56 188 0.0 0.0 0.00 0.00 0.00 68 1001.2
20260901134009 56 188 0.0 0.0 0.00 0.00 0.00 68 1001.2
20260901133010 55 188 0.0 0.0 0.00 0.00 0.00 68 1001.1
20260901132510 55 188 0.0 0.0 0.00 0.00 0.00 68 1001.1
20260901132014 55 188 0.0 0.0 0.00 0.00 0.00 67 1001.1
20260901131510 55 188 0.0 0.0 0.00 0.00 0.00 67 1001.3
20260901131009 55 188 0.0 2.0 0.00 0.00 0.00 68 1001.3
20260901130509 56 188 0.0 2.0 0.00 0.00 0.00 68 1001.3
20260901130009 56 188 1.0 2.0 0.00 0.00 0.00 67 1001.2
20260901125511 56 188 0.0 0.0 0.00 0.00 0.00 67 1001.2
20260901125011 55 188 0.0 2.0 0.00 0.00 0.00 68 1001.1
20260901124508 55 188 0.0 2.0 0.00 0.00 0.00 68 1001.1
20260901124009 54 188 0.0 3.0 0.00 0.00 0.00 69 1001.0
20260901123007 54 188 2.0 4.0 0.00 0.00 0.00 69 1000.9
20260901122510 54 188 1.0 4.0 0.00 0.00 0.00 69 1000.8
20260901122006 55 188 2.0 3.0 0.00 0.00 0.00 68 1001.1
20260901121507 55 188 2.0 4.0 0.00 0.00 0.00 67 1001.0
20260901121006 55 188 0.0 2.0 0.00 0.00 0.00 68 1001.0
20260901120507 55 188 1.0 2.0 0.00 0.00 0.00 69 1000.9
20260901120006 54 188 1.0 3.0 0.00 0.00 0.00 69 1000.9
20260901115507 54 188 1.0 4.0 0.00 0.00 0.00 70 1000.9
20260901115007 53 188 1.0 2.0 0.00 0.00 0.00 72 1000.9
20260901114506 52 188 1.0 3.0 0.00 0.00 0.00 72 1001.1
20260901114005 53 186 2.0 5.0 0.00 0.00 0.00 69 1001.1
20260901113005 53 186 2.0 5.0 0.00 0.00 0.00 69 1001.0
20260901112503 54 186 3.0 5.0 0.00 0.00 0.00 67 1001.1
20260901112003 56 186 1.0 5.0 0.00 0.00 0.00 64 1001.0
20260901111503 57 360 0.0 0.0 0.00 0.00 0.00 65 1001.0
20260901111003 57 186 0.0 0.0 0.00 0.00 0.00 65 1000.9
20260901110503 57 186 0.0 0.0 0.00 0.00 0.00 65 1000.9
20260901110007 56 186 0.0 0.0 0.00 0.00 0.00 66 1000.8
20260901105503 56 186 0.0 0.0 0.00 0.00 0.00 67 1000.8
20260901105004 55 360 0.0 0.0 0.00 0.00 0.00 68 1000.8
20260901104502 55 360 0.0 0.0 0.00 0.00 0.00 68 1000.9
20260901104004 54 360 0.0 0.0 0.00 0.00 0.00 68 1000.9
20260901103000 55 360 0.0 0.0 0.00 0.00 0.00 66 1001.1
20260901102600 55 360 0.0 0.0 0.00 0.00 0.00 64 1001.1
20260901102100 56 165 0.0 0.0 0.00 0.00 0.00 63 1000.9
20260901101600 57 360 0.0 0.0 0.00 0.00 0.00 62 1000.9
20260901101100 58 360 0.0 0.0 0.00 0.00 0.00 60 1000.9
20260901100603 59 360 0.0 0.0 0.00 0.00 0.00 60 1000.8
20260901095559 59 360 0.0 0.0 0.00 0.00 0.00 60 1000.8
20260901095059 59 360 0.0 0.0 0.00 0.00 0.00 60 1000.8
20260901094559 59 360 0.0 0.0 0.00 0.00 0.00 60 1000.9
20260901094059 59 360 0.0 0.0 0.00 0.00 0.00 61 1000.8
20260901093659 59 360 0.0 0.0 0.00 0.00 0.00 59 1000.7
20260901093101 59 360 0.0 0.0 0.00 0.00 0.00 59 1000.8
20260901092559 60 360 0.0 0.0 0.00 0.00 0.00 59 1000.8
20260901092059 60 360 0.0 0.0 0.00 0.00 0.00 58 1000.6
20260901091606 60 360 0.0 0.0 0.00 0.00 0.00 59 1000.7
20260901091059 60 360 0.0 0.0 0.00 0.00 0.00 59 1000.7
20260901090601 60 360 0.0 0.0 0.00 0.00 0.00 58 1000.9
20260901090101 60 360 0.0 0.0 0.00 0.00 0.00 59 1000.9
20260901085558 60 360 0.0 0.0 0.00 0.00 0.00 59 1000.7
20260901085101 59 360 0.0 0.0 0.00 0.00 0.00 59 1000.9
20260901084603 60 360 0.0 0.0 0.00 0.00 0.00 59 1001.0
20260901084158 59 360 0.0 0.0 0.00 0.00 0.00 60 1000.8
20260901083657 58 360 0.0 0.0 0.00 0.00 0.00 61 1000.8
20260901083057 58 360 0.0 0.0 0.00 0.00 0.00 61 1000.9
20260901082557 58 144 0.0 0.0 0.00 0.00 0.00 60 1001.0
20260901082058 59 142 0.0 0.0 0.00 0.00 0.00 60 1001.2
20260901081557 59 142 0.0 0.0 0.00 0.00 0.00 60 1001.2
20260901081057 58 142 0.0 0.0 0.00 0.00 0.00 61 1000.9
20260901080558 58 142 0.0 0.0 0.00 0.00 0.00 62 1000.9
20260901080110 57 143 0.0 0.0 0.00 0.00 0.00 63 1001.1
20260901075559 57 360 0.0 0.0 0.00 0.00 0.00 63 1001.1
20260901075057 57 360 0.0 0.0 0.00 0.00 0.00 61 1001.1
20260901074557 58 138 0.0 0.0 0.00 0.00 0.00 61 1000.8
20260901074059 57 136 0.0 0.0 0.00 0.00 0.00 63 1000.9
20260901073657 55 136 0.0 2.0 0.00 0.00 0.00 65 1000.7
20260901073056 55 136 0.0 4.0 0.00 0.00 0.00 65 1000.9
20260901072555 55 136 0.0 5.0 0.00 0.00 0.00 65 1000.9
20260901072054 55 136 3.0 7.0 0.00 0.00 0.00 64 1001.2
20260901071601 56 360 4.0 7.0 0.00 0.00 0.00 62 1001.2
20260901071054 58 288 4.0 7.0 0.00 0.00 0.00 62 1001.1
20260901070550 57 360 6.0 7.0 0.00 0.00 0.00 63 1001.0
20260901070059 56 290 6.0 7.0 0.00 0.00 0.00 63 1000.7
20260901065552 57 294 0.0 7.0 0.00 0.00 0.00 62 1000.8
20260901065047 57 294 0.0 8.0 0.00 0.00 0.00 62 1000.8
20260901064604 58 294 6.0 8.0 0.00 0.00 0.00 61 1000.6
20260901064045 58 297 7.0 8.0 0.00 0.00 0.00 61 1000.6
20260901063645 58 287 7.0 8.0 0.00 0.00 0.00 61 1000.4
20260901063100 58 281 7.0 8.0 0.00 0.00 0.00 61 1000.5
20260901062545 58 360 7.0 8.0 0.00 0.00 0.00 61 1000.6
20260901062045 58 294 6.0 8.0 0.00 0.00 0.00 61 1000.6
20260901061545 58 297 6.0 8.0 0.00 0.00 0.00 60 1000.4
20260901061044 59 360 7.0 8.0 0.00 0.00 0.00 58 1000.4
20260901060547 60 304 6.0 7.0 0.00 0.00 0.00 58 1000.3
20260901060045 60 304 6.0 8.0 0.00 0.00 0.00 58 1000.5
20260901055544 59 360 6.0 9.0 0.00 0.00 0.00 59 1000.4
20260901055044 59 360 7.0 9.0 0.00 0.00 0.00 60 1000.3
20260901054544 58 305 7.0 8.0 0.00 0.00 0.00 60 1000.4
20260901054044 58 303 7.0 8.0 0.00 0.00 0.00 61 1000.5
20260901053646 58 270 6.0 8.0 0.00 0.00 0.00 61 1000.4
20260901053044 58 298 6.0 8.0 0.00 0.00 0.00 61 1000.2
20260901052542 58 297 6.0 8.0 0.00 0.00 0.00 60 1000.2
20260901052042 59 296 6.0 7.0 0.00 0.00 0.00 59 1000.2
20260901051542 59 360 6.0 9.0 0.00 0.00 0.00 59 1000.0
20260901051041 59 360 7.0 9.0 0.00 0.00 0.00 59 1000.0
20260901050541 59 298 6.0 9.0 0.00 0.00 0.00 60 1000.0
20260901050041 58 360 7.0 9.0 0.00 0.00 0.00 60 999.9
20260901045540 58 303 7.0 9.0 0.00 0.00 0.00 61 999.9
20260901045039 58 300 7.0 10.0 0.00 0.00 0.00 61 1000.0
20260901044539 58 360 8.0 10.0 0.00 0.00 0.00 60 999.8
20260901044038 59 300 8.0 10.0 0.00 0.00 0.00 59 999.9
20260901043537 59 298 7.0 8.0 0.00 0.00 0.00 59 999.9
20260901043036 59 360 7.0 8.0 0.00 0.00 0.00 59 999.9
20260901042536 59 304 7.0 8.0 0.00 0.00 0.00 59 999.8
20260901042034 60 306 7.0 8.0 0.00 0.00 0.00 57 999.8
20260901041533 61 312 7.0 9.0 0.00 0.00 0.00 54 999.8
20260901041033 63 304 7.0 10.0 0.00 0.00 0.00 52 999.8
20260901040531 63 360 8.0 9.0 0.00 0.00 0.00 53 999.9
20260901040031 63 286 7.0 9.0 0.00 0.00 0.00 52 999.9
20260901035531 64 288 7.0 9.0 0.00 0.00 0.00 52 999.8
20260901035030 63 271 7.0 9.0 0.00 0.00 0.00 52 1000.0
20260901034530 63 360 6.0 9.0 0.00 0.00 0.00 52 1000.0
20260901034030 63 270 7.0 10.0 0.00 0.00 0.00 52 1000.0
20260901033632 63 268 8.0 10.0 0.00 0.00 0.00 52 1000.0
20260901033037 63 270 7.0 10.0 0.00 0.00 0.00 52 1000.0
20260901032530 63 261 7.0 9.0 0.00 0.00 0.00 52 1000.0
20260901032029 64 268 8.0 9.0 0.00 0.00 0.00 51 1000.1
20260901031538 64 360 7.0 8.0 0.00 0.00 0.00 50 1000.1
20260901031027 65 267 7.0 8.0 0.00 0.00 0.00 50 1000.1
20260901030527 65 262 7.0 9.0 0.00 0.00 0.00 49 1000.1
20260901030027 65 264 8.0 9.0 0.00 0.00 0.00 50 1000.0
20260901025529 65 360 7.0 9.0 0.00 0.00 0.00 50 999.9
20260901025029 64 267 7.0 9.0 0.00 0.00 0.00 50 999.9
20260901024525 64 264 7.0 9.0 0.00 0.00 0.00 50 999.9
20260901024024 64 267 7.0 9.0 0.00 0.00 0.00 50 1000.0
20260901023524 65 246 7.0 9.0 0.00 0.00 0.00 49 999.9
20260901023023 65 256 7.0 9.0 0.00 0.00 0.00 49 999.8
20260901022523 65 259 7.0 9.0 0.00 0.00 0.00 49 999.7
20260901022021 66 360 7.0 8.0 0.00 0.00 0.00 48 999.6
20260901021540 66 267 6.0 8.0 0.00 0.00 0.00 48 999.6
20260901021019 67 265 7.0 8.0 0.00 0.00 0.00 47 999.5
20260901020520 67 266 6.0 8.0 0.00 0.00 0.00 47 999.3
20260901020016 67 261 6.0 8.0 0.00 0.00 0.00 46 999.3
20260901015514 68 256 6.0 8.0 0.00 0.00 0.00 46 999.2
20260901015016 69 257 6.0 8.0 0.00 0.00 0.00 45 999.1
20260901014512 70 259 6.0 9.0 0.00 0.00 0.00 44 999.0
20260901014010 70 259 6.0 9.0 0.00 0.00 0.00 43 999.0
20260901013610 72 267 6.0 8.0 0.00 0.00 0.00 42 998.9
20260901013010 72 267 6.0 9.0 0.00 0.00 0.00 42 998.8
20260901012507 73 266 6.0 11.0 0.00 0.00 0.00 41 998.7
20260901012006 73 260 7.0 11.0 0.00 0.00 0.00 40 998.7
20260901011506 74 264 7.0 18.0 0.00 0.00 0.00 39 998.6
20260901011003 75 360 9.0 19.0 0.00 0.00 0.00 39 998.6
20260901010502 75 360 13.0 19.0 0.00 0.00 0.00 38 998.6
20260901010003 76 267 14.0 18.0 0.00 0.00 0.00 38 998.5
20260901005601 76 269 10.0 18.0 0.00 0.00 0.00 38 998.5
20260901005059 76 273 12.0 22.0 0.00 0.00 0.00 37 998.4
20260901004602 76 360 16.0 22.0 0.00 0.00 0.00 37 998.4
20260901004059 77 254 15.0 23.0 0.00 0.00 0.00 37 998.4
20260901003556 77 267 16.0 24.0 0.00 0.00 0.00 37 998.3
20260901002555 77 360 15.0 25.0 0.00 0.00 0.00 36 998.4
20260901002055 77 268 18.0 25.0 0.00 0.00 0.00 36 998.4
20260901001555 78 259 15.0 26.0 0.00 0.00 0.00 36 998.2
20260901001054 77 250 15.0 26.0 0.00 0.00 0.00 36 998.2
20260901000554 78 248 17.0 26.0 0.00 0.00 0.00 36 998.2
20260901000054 78 263 18.0 27.0 0.00 0.00 0.00 36 998.3
20260831235553 78 249 22.0 29.0 0.00 0.00 0.00 36 998.2
20260831235053 78 259 16.0 29.0 0.00 0.00 0.00 36 998.2
20260831234552 78 262 20.0 27.0 0.00 0.00 0.00 36 998.2
20260831234056 78 251 17.0 31.0 0.00 0.00 0.00 35 998.1
20260831233551 78 244 24.0 32.0 0.00 0.00 0.00 35 998.2
20260831232552 78 267 20.0 30.0 0.00 0.00 0.00 35 998.2
20260831232052 78 254 21.0 30.0 0.00 0.00 0.00 34 998.1
20260831231606 78 246 23.0 32.0 0.00 0.00 0.00 35 998.1
20260831231051 78 242 26.0 35.0 0.00 0.00 0.00 34 998.1
20260831230550 79 250 22.0 35.0 0.00 0.00 0.00 34 998.1
20260831230051 79 242 22.0 30.0 0.00 0.00 0.00 35 998.1
20260831225550 79 257 22.0 34.0 0.00 0.00 0.00 34 998.1
20260831225051 79 360 22.0 34.0 0.00 0.00 0.00 34 998.0
20260831224549 79 248 19.0 32.0 0.00 0.00 0.00 35 998.1
20260831224048 79 250 20.0 32.0 0.00 0.00 0.00 34 998.0
20260831223548 79 254 23.0 37.0 0.00 0.00 0.00 33 997.8
20260831222549 79 248 22.0 37.0 0.00 0.00 0.00 34 998.0
20260831222048 79 246 23.0 33.0 0.00 0.00 0.00 33 998.1
20260831221548 79 257 20.0 35.0 0.00 0.00 0.00 34 998.0
20260831221047 79 360 22.0 35.0 0.00 0.00 0.00 34 998.0
20260831220547 79 252 22.0 37.0 0.00 0.00 0.00 34 998.0
20260831220047 79 245 25.0 37.0 0.00 0.00 0.00 34 998.0
20260831215547 79 244 23.0 34.0 0.00 0.00 0.00 34 997.9
20260831215048 79 360 24.0 34.0 0.00 0.00 0.00 33 997.9
20260831214547 79 244 27.0 35.0 0.00 0.00 0.00 32 997.9
20260831214046 79 252 25.0 35.0 0.00 0.00 0.00 33 997.9
20260831213647 79 360 25.0 37.0 0.00 0.00 0.00 34 997.9
20260831212545 79 360 28.0 36.0 0.00 0.00 0.00 33 997.7
20260831212044 79 360 25.0 36.0 0.00 0.00 0.00 33 997.9
20260831211548 79 267 21.0 38.0 0.00 0.00 0.00 33 998.1
20260831211042 79 360 26.0 38.0 0.00 0.00 0.00 34 998.0
20260831210542 79 236 28.0 38.0 0.00 0.00 0.00 33 998.1
20260831210042 79 237 30.0 36.0 0.00 0.00 0.00 31 998.1
20260831205542 79 245 21.0 40.0 0.00 0.00 0.00 34 998.1
20260831205042 79 234 27.0 40.0 0.00 0.00 0.00 33 998.1
20260831204542 80 242 27.0 38.0 0.00 0.00 0.00 32 998.0
20260831204041 79 360 22.0 38.0 0.00 0.00 0.00 33 997.9
20260831203541 79 360 26.0 38.0 0.00 0.00 0.00 33 998.0
20260831202539 79 250 24.0 38.0 0.00 0.00 0.00 33 998.0
20260831202040 79 229 28.0 37.0 0.00 0.00 0.00 34 998.0
20260831201546 78 251 29.0 37.0 0.00 0.00 0.00 33 997.9
20260831201040 78 265 26.0 38.0 0.00 0.00 0.00 35 997.8
20260831200540 79 253 29.0 38.0 0.00 0.00 0.00 34 998.0
20260831200043 78 254 27.0 40.0 0.00 0.00 0.00 34 998.0
20260831195541 78 265 29.0 40.0 0.00 0.00 0.00 36 997.9
20260831195038 78 234 25.0 37.0 0.00 0.00 0.00 35 997.9
20260831194621 78 253 28.0 37.0 0.00 0.00 0.00 35 998.0
20260831194037 77 360 29.0 36.0 0.00 0.00 0.00 35 997.9
20260831193536 77 250 29.0 39.0 0.00 0.00 0.00 36 997.8
20260831192535 77 238 31.0 39.0 0.00 0.00 0.00 35 997.8
20260831192037 77 242 27.0 38.0 0.00 0.00 0.00 37 997.8
20260831191537 77 243 27.0 38.0 0.00 0.00 0.00 37 997.8
20260831191036 78 258 27.0 37.0 0.00 0.00 0.00 37 997.7
20260831190535 77 247 27.0 40.0 0.00 0.00 0.00 37 997.7
20260831190039 76 255 29.0 40.0 0.00 0.00 0.00 39 997.7
20260831185535 76 259 25.0 37.0 0.00 0.00 0.00 39 997.8
20260831185034 77 223 26.0 38.0 0.00 0.00 0.00 39 997.8
20260831184538 77 245 29.0 38.0 0.00 0.00 0.00 38 997.7
20260831184033 76 360 26.0 38.0 0.00 0.00 0.00 40 997.8
20260831183534 77 255 28.0 39.0 0.00 0.00 0.00 38 997.8
20260831182533 76 236 29.0 39.0 0.00 0.00 0.00 40 997.8
20260831182033 76 234 25.0 36.0 0.00 0.00 0.00 40 997.7
20260831181538 76 262 25.0 39.0 0.00 0.00 0.00 39 997.7
20260831181032 76 252 25.0 38.0 0.00 0.00 0.00 41 997.8
20260831180531 76 259 28.0 38.0 0.00 0.00 0.00 40 997.6
20260831180031 76 263 23.0 36.0 0.00 0.00 0.00 41 997.8
20260831175534 75 360 28.0 36.0 0.00 0.00 0.00 42 997.8
20260831175031 75 258 27.0 35.0 0.00 0.00 0.00 42 997.7
20260831174536 75 253 27.0 39.0 0.00 0.00 0.00 43 997.8
20260831174033 74 259 31.0 39.0 0.00 0.00 0.00 44 997.8
20260831173530 74 255 27.0 36.0 0.00 0.00 0.00 43 997.6
20260831172527 74 250 26.0 36.0 0.00 0.00 0.00 45 997.8
20260831172031 74 255 28.0 40.0 0.00 0.00 0.00 44 997.8
20260831171533 73 265 25.0 40.0 0.00 0.00 0.00 44 997.8
20260831171026 73 241 27.0 39.0 0.00 0.00 0.00 44 997.8
20260831170527 73 259 29.0 39.0 0.00 0.00 0.00 43 997.7